Back to catalog

NOAA 16 DEB

AliveSSO
NORAD 41208·DEBRIS·🇺🇸 United States

Launched Sep 21, 2000 from Vandenberg Space Force Base

Loading…

Next Passes (next 24 hours)

TLE

FreshSource: Space-Track

Epoch: Sep 13, 2026, 11:14 UTC

1 41208U 00055DM  26256.46873932  .00001944  00000-0  94715-3 0  9995
2 41208  98.6626 266.6618 0030999 357.7115   2.3915 14.19015010552079

Track NOAA 16 DEB in real time with AllMySat

Download on the App Store